When you browse on this site, cookies collect data to enhance your experience and personalize the content and advertising you see.
Visit our Privacy Policy to learn more. By continuing to use the site, you agree to this use of cookies and data.
  • In Switzerland
  • List of Countries
  • For 7 days
  • Water Temperature
  • Weather Map
  • Weather Widgets
  • user-avatar
    Login

    Hourly Weather Morevo

    Today, 25 August, Sunday

    Time Temperature Precipitation Wind Pressure Humidity
    00:00 +14°C° 0 mm 2 mps 752 mmHg 94%
    01:00 +14°C° 0 mm 1 mps 753 mmHg 94%
    02:00 +14°C° 0 mm 1 mps 753 mmHg 95%
    03:00 +14°C° 0 mm 1 mps 753 mmHg 95%
    04:00 +13°C° 0 mm 1 mps 753 mmHg 95%
    05:00 +13°C° 0 mm 1 mps 753 mmHg 95%
    06:00 +15°C° 0 mm 1 mps 754 mmHg 89%
    07:00 +16°C° 0 mm 1 mps 754 mmHg 83%
    08:00 +19°C° 0 mm 1 mps 755 mmHg 76%
    09:00 +19°C° 0 mm 2 mps 754 mmHg 70%
    10:00 +20°C° 0 mm 2 mps 754 mmHg 64%
    11:00 +23°C° 0 mm 2 mps 754 mmHg 58%
    12:00 +23°C° 0 mm 2 mps 754 mmHg 56%
    13:00 +23°C° 0 mm 2 mps 754 mmHg 55%
    14:00 +23°C° 0 mm 2 mps 754 mmHg 53%
    15:00 +23°C° 0 mm 2 mps 754 mmHg 58%
    16:00 +23°C° 0 mm 2 mps 754 mmHg 62%
    17:00 +22°C° 0 mm 1 mps 754 mmHg 67%
    18:00 +20°C° 0 mm 1 mps 754 mmHg 71%
    19:00 +18°C° 0 mm 1 mps 755 mmHg 75%
    20:00 +15°C° 0 mm 1 mps 755 mmHg 80%
    21:00 +14°C° 0 mm 1 mps 755 mmHg 83%
    22:00 +14°C° 0 mm 1 mps 755 mmHg 86%
    23:00 +13°C° 0 mm 1 mps 755 mmHg 89%

    Tomorrow, 26 August, Monday

    Time Temperature Precipitation Wind Pressure Humidity
    00:00 +13°C° 0 mm 1 mps 755 mmHg 90%
    01:00 +13°C° 0 mm 1 mps 755 mmHg 91%
    02:00 +12°C° 0 mm 1 mps 755 mmHg 92%
    03:00 +12°C° 0 mm 1 mps 755 mmHg 92%
    04:00 +11°C° 0 mm 0 mps 755 mmHg 93%
    05:00 +10°C° 0 mm 0 mps 755 mmHg 93%
    06:00 +13°C° 0 mm 0 mps 755 mmHg 87%
    07:00 +15°C° 0 mm 0 mps 755 mmHg 81%
    08:00 +17°C° 0 mm 0 mps 755 mmHg 75%
    09:00 +20°C° 0 mm 1 mps 755 mmHg 69%
    10:00 +21°C° 0 mm 1 mps 755 mmHg 64%
    11:00 +23°C° 0 mm 1 mps 755 mmHg 59%
    12:00 +23°C° 0 mm 2 mps 754 mmHg 58%
    13:00 +23°C° 0 mm 2 mps 754 mmHg 56%
    14:00 +24°C° 0 mm 2 mps 754 mmHg 55%
    15:00 +23°C° 0 mm 2 mps 753 mmHg 60%
    16:00 +23°C° 0 mm 2 mps 753 mmHg 65%
    17:00 +23°C° 0 mm 2 mps 753 mmHg 70%
    18:00 +20°C° 0 mm 2 mps 752 mmHg 75%
    19:00 +18°C° 0 mm 2 mps 752 mmHg 80%
    20:00 +16°C° 0 mm 2 mps 752 mmHg 86%
    21:00 +16°C° 0 mm 2 mps 752 mmHg 87%
    22:00 +16°C° 0 mm 2 mps 752 mmHg 88%
    23:00 +16°C° 0 mm 2 mps 752 mmHg 89%

    Day after tomorrow, 27 August, Tuesday

    Time Temperature Precipitation Wind Pressure Humidity
    00:00 +15°C° 0 mm 2 mps 751 mmHg 90%
    01:00 +15°C° 0 mm 2 mps 751 mmHg 91%
    02:00 +15°C° 0 mm 2 mps 751 mmHg 92%
    03:00 +15°C° 0 mm 2 mps 751 mmHg 93%
    04:00 +15°C° 0 mm 2 mps 751 mmHg 95%
    05:00 +15°C° 0 mm 2 mps 751 mmHg 96%
    06:00 +16°C° 0 mm 3 mps 751 mmHg 92%
    07:00 +17°C° 0 mm 3 mps 751 mmHg 88%
    08:00 +19°C° 0 mm 3 mps 751 mmHg 84%
    09:00 +20°C° 0 mm 3 mps 751 mmHg 78%
    10:00 +21°C° 0 mm 4 mps 751 mmHg 72%
    11:00 +22°C° 0 mm 4 mps 751 mmHg 67%
    12:00 +22°C° 0 mm 4 mps 751 mmHg 64%
    13:00 +23°C° 0 mm 4 mps 751 mmHg 61%
    14:00 +23°C° 0 mm 4 mps 751 mmHg 58%
    15:00 +23°C° 0 mm 4 mps 751 mmHg 61%
    16:00 +22°C° 0 mm 3 mps 751 mmHg 64%
    17:00 +21°C° 0 mm 3 mps 750 mmHg 67%
    18:00 +19°C° 0 mm 3 mps 751 mmHg 71%
    19:00 +18°C° 0 mm 2 mps 751 mmHg 75%
    20:00 +16°C° 0 mm 2 mps 751 mmHg 79%
    21:00 +15°C° 0 mm 2 mps 751 mmHg 80%
    22:00 +14°C° 0 mm 2 mps 751 mmHg 82%
    23:00 +13°C° 0 mm 2 mps 752 mmHg 83%

    28 August, Wednesday

    Time Temperature Precipitation Wind Pressure Humidity
    00:00 +13°C° 0 mm 2 mps 752 mmHg 86%
    01:00 +12°C° 0 mm 2 mps 752 mmHg 89%
    02:00 +12°C° 0 mm 2 mps 752 mmHg 92%
    03:00 +12°C° 0 mm 2 mps 752 mmHg 93%
    04:00 +10°C° 0 mm 2 mps 752 mmHg 95%
    05:00 +10°C° 0 mm 2 mps 753 mmHg 97%
    06:00 +12°C° 0 mm 2 mps 753 mmHg 90%
    07:00 +12°C° 0 mm 3 mps 753 mmHg 83%
    08:00 +13°C° 0 mm 3 mps 753 mmHg 76%
    09:00 +14°C° 0 mm 3 mps 753 mmHg 69%
    10:00 +16°C° 0 mm 3 mps 753 mmHg 63%
    11:00 +17°C° 0 mm 3 mps 753 mmHg 56%
    12:00 +18°C° 0 mm 3 mps 753 mmHg 53%
    13:00 +18°C° 0 mm 3 mps 753 mmHg 50%
    14:00 +19°C° 0 mm 3 mps 753 mmHg 47%
    15:00 +18°C° 0 mm 3 mps 753 mmHg 51%
    16:00 +17°C° 0 mm 2 mps 753 mmHg 56%
    17:00 +17°C° 0 mm 2 mps 753 mmHg 60%
    18:00 +15°C° 0 mm 2 mps 753 mmHg 63%
    19:00 +13°C° 0 mm 2 mps 753 mmHg 67%
    20:00 +10°C° 0 mm 2 mps 754 mmHg 70%
    21:00 +9°C° 0 mm 2 mps 754 mmHg 73%
    22:00 +9°C° 0 mm 2 mps 754 mmHg 75%
    23:00 +8°C° 0 mm 2 mps 754 mmHg 77%

    29 August, Thursday

    Time Temperature Precipitation Wind Pressure Humidity
    00:00 +7°C° 0 mm 2 mps 754 mmHg 79%
    01:00 +7°C° 0 mm 2 mps 755 mmHg 81%
    02:00 +6°C° 0 mm 2 mps 755 mmHg 83%
    03:00 +6°C° 0 mm 2 mps 755 mmHg 85%
    04:00 +7°C° 0 mm 1 mps 755 mmHg 86%
    05:00 +6°C° 0 mm 1 mps 755 mmHg 88%
    06:00 +8°C° 0 mm 1 mps 755 mmHg 81%
    07:00 +9°C° 0 mm 2 mps 755 mmHg 74%
    08:00 +12°C° 0 mm 2 mps 755 mmHg 67%
    09:00 +14°C° 0 mm 2 mps 755 mmHg 61%
    10:00 +15°C° 0 mm 2 mps 755 mmHg 55%
    11:00 +17°C° 0 mm 2 mps 755 mmHg 50%
    12:00 +17°C° 0 mm 2 mps 755 mmHg 49%
    13:00 +18°C° 0 mm 2 mps 755 mmHg 48%
    14:00 +19°C° 0 mm 2 mps 754 mmHg 47%
    15:00 +19°C° 0 mm 1 mps 754 mmHg 53%
    16:00 +19°C° 0 mm 1 mps 754 mmHg 58%
    17:00 +19°C° 0 mm 1 mps 754 mmHg 64%
    18:00 +16°C° 0 mm 1 mps 754 mmHg 68%
    19:00 +14°C° 0 mm 1 mps 754 mmHg 73%
    20:00 +12°C° 0 mm 1 mps 753 mmHg 77%
    21:00 +11°C° 0 mm 1 mps 753 mmHg 79%
    22:00 +11°C° 0 mm 1 mps 753 mmHg 81%
    23:00 +11°C° 0 mm 1 mps 754 mmHg 83%

    30 August, Friday

    Time Temperature Precipitation Wind Pressure Humidity
    00:00 +10°C° 0 mm 1 mps 753 mmHg 83%
    01:00 +10°C° 0 mm 1 mps 753 mmHg 84%
    02:00 +10°C° 0 mm 1 mps 753 mmHg 85%
    03:00 +10°C° 0 mm 1 mps 753 mmHg 86%
    04:00 +9°C° 0 mm 1 mps 753 mmHg 87%
    05:00 +9°C° 0 mm 1 mps 753 mmHg 87%
    06:00 +11°C° 0 mm 1 mps 753 mmHg 80%
    07:00 +13°C° 0 mm 1 mps 753 mmHg 73%
    08:00 +14°C° 0 mm 0 mps 753 mmHg 66%
    09:00 +18°C° 0 mm 1 mps 753 mmHg 62%
    10:00 +19°C° 0 mm 1 mps 754 mmHg 58%
    11:00 +21°C° 0 mm 1 mps 754 mmHg 53%
    12:00 +21°C° 0 mm 1 mps 753 mmHg 53%
    13:00 +22°C° 0 mm 1 mps 753 mmHg 53%
    14:00 +22°C° 0 mm 1 mps 753 mmHg 52%
    15:00 +22°C° 0 mm 1 mps 753 mmHg 58%
    16:00 +21°C° 0 mm 1 mps 753 mmHg 63%
    17:00 +20°C° 0 mm 1 mps 753 mmHg 69%
    18:00 +19°C° 0 mm 1 mps 753 mmHg 73%
    19:00 +15°C° 0 mm 0 mps 753 mmHg 78%
    20:00 +13°C° 0 mm 0 mps 753 mmHg 82%
    21:00 +13°C° 0 mm 0 mps 753 mmHg 83%
    22:00 +13°C° 0 mm 0 mps 754 mmHg 84%
    23:00 +13°C° 0 mm 1 mps 754 mmHg 85%
    Show more